Regional Weather Roundup
Issued by NWS

Home | Current Version | Previous Version | Graphics & Text | Print | Product List | Glossary On
Versions: 1 2 3 4 5 6 7 8 9 10 11 12 13 14 15 16 17 18 19 20 21 22 23 24 25 26 27 28 29 30 31 32 33 34 35 36 37 38 39 40 41 42 43 44 45 46 47 48 49 50
000
ASUS45 KBOU 062310
RWRCO

WEATHER ROUNDUP FOR COLORADO
NATIONAL WEATHER SERVICE DENVER/BOULDER CO
500 PM MDT MON JUL 06 2015

NOTE: "FAIR" INDICATES FEW OR NO CLOUDS BELOW 12000 FEET WITH NO
SIGNIFICANT WEATHER AND/OR OBSTRUCTIONS TO VISIBILITY.

COZ001>005-013-030-031-070000-
...NORTHWEST COLORADO...

CITY           SKY/WX    TMP DP  RH WIND       PRES   REMARKS
CRAIG          PTSUNNY   80  50  34 E5        30.17F
HAYDEN         PTSUNNY   75  46  35 SW3       30.19F
MEEKER         PTSUNNY   75  53  46 SE5       30.18F
MOUNT WERNER   NOT AVBL
STEAMBOAT SPGS CLOUDY    72  52  49 W3        30.22F
WALDEN         MOSUNNY   68  46  45 NW7       30.32F
$$

COZ006>008-011-070000-
...WEST CENTRAL VALLEYS...

CITY           SKY/WX    TMP DP  RH WIND       PRES   REMARKS
GRAND JUNCTION CLOUDY    86  41  20 VRB5      30.04F
MONTROSE       MOSUNNY   84  47  27 N9        30.14F
EAGLE          MOSUNNY   70  54  56 CALM      30.24F
RIFLE          PTSUNNY   80  52  37 E9        30.11F
DELTA          MOSUNNY   87  48  25 N7        30.10F
NUCLA          CLOUDY    72  50  46 N20G31    30.19R THUNDER
$$

COZ017>023-064>068-070000-
...SOUTHWEST COLORADO...

CITY           SKY/WX    TMP DP  RH WIND       PRES   REMARKS
DURANGO        LGT RAIN  64  57  78 S6        30.21S
CORTEZ         MOSUNNY   84  49  29 NW20G26   30.12F
PAGOSA SPRINGS LGT RAIN  61  52  72 NE5       30.30R
TELLURIDE      PTSUNNY   71  37  28 W8        30.38S
WOLF CREEK PAS NOT AVBL
$$

COZ009-010-012-014-032>034-037-058>063-070000-
...CENTRAL COLORADO...

CITY           SKY/WX    TMP DP  RH WIND       PRES   REMARKS
ASPEN          PTSUNNY   69  49  48 S7        30.29F
BUENA VISTA    RAIN      57  52  82 NW8       30.36R
COPPER MTN     CLOUDY    52  45  76 S10       30.61F
BERTHOUD PASS  TSTM      37  30  75 E13G18    30.65R VSB 1/2
COTTONWOOD PAS NOT AVBL
GUNNISON       CLOUDY    66  45  45 N12       30.31F
KREMMLING      CLOUDY    70  46  43 NW3       30.30S
LEADVILLE      LGT RAIN  51  47  86 E6        30.46F
SALIDA         CLOUDY    66  54  65 SE14G20   30.37S
SUNLIGHT       PTSUNNY   59  48  67 CALM      30.53F
WILKERSON PASS SNOW      45  43  93 E9G18     30.58F VSB<1/4
$$

COZ069>075-070000-
...SAN LUIS VALLEY/SANGRE DE CRISTO MOUNTAINS...

CITY           SKY/WX    TMP DP  RH WIND       PRES   REMARKS
ALAMOSA        PTSUNNY   73  49  42 SE18G29   30.24F
LA VETA PASS   DRZL/FOG  48  46  93 MISG      30.48S VSB<1/4
SAGUACHE       CLOUDY    63  50  63 N9G22     30.29R
$$

COZ035-036-038>040-070000-
...NORTHERN COLORADO FRONT RANGE...

CITY           SKY/WX    TMP DP  RH WIND       PRES   REMARKS
DENVER INTL AP CLOUDY    63  53  70 E10       30.27F
DMNS CITY PARK   N/A     60  57  92 E5G16     30.27F
AURORA         CLOUDY    60  55  83 E9        30.29F
FRONT RANGE AP CLOUDY    61  54  77 E9        30.29S
ERIE MUNI ARPT CLOUDY    63  57  80 E3        30.26F
BOULDER MUN AP DRIZZLE   59  59 100 CALM      30.27F
CENTENNIAL     CLOUDY    59  56  89 E7        30.29F FOG
BROOMFIELD       N/A     59  57  94 E13       30.31S
FORT COLLINS   PTSUNNY   64  55  72 E10       30.27F
LONGMONT       CLOUDY    63  60  90 SW3       30.28F FOG
$$

COZ041-046-047-076>085-087-088-070000-
...PIKES PEAK/PALMER DIVIDE AND SOUTHERN FOOTHILLS...

CITY           SKY/WX    TMP DP  RH WIND       PRES   REMARKS
COLO. SPRINGS  LGT RAIN  60  55  83 NE16      30.31R
A. F. ACADEMY  LGT RAIN  59  56  92 N7        30.32R
ELLICOTT       CLOUDY   N/A N/A N/A NE15      30.29F
FALCON         FOG       55  55  99 NE10      30.36R VSB 1
FORT CARSON    RAIN      57  57 100 NE9       30.29R FOG
LIMON          CLOUDY    64  53  67 N12       30.26F
MONUMENT HILL  FOG       54  52  94 MISG      30.36R VSB 1/2
TRINIDAD       LGT RAIN  63  60  90 E9        30.25R
$$

COZ042>045-048>051-090-091-070000-
...NORTHEAST COLORADO...

CITY           SKY/WX    TMP DP  RH WIND       PRES   REMARKS
GREELEY ARPT   PTSUNNY   68  54  60 E6        30.26S
AKRON          CLOUDY    68  53  58 NE13      30.23S HAZE
BURLINGTON     PTSUNNY   72  55  55 N17G28    30.17F
WRAY           CLOUDY    73  51  46 NE15      30.17F HAZE
STERLING       CLOUDY    70  54  56 NE7         N/A  HAZE
HOLYOKE        PTSUNNY   73  52  46 NE14      30.18F HAZE
FORT MORGAN    CLOUDY    68  52  56 NE10      30.24F HAZE
$$

COZ086-089-092>099-070000-
...SOUTHEAST COLORADO...

CITY           SKY/WX    TMP DP  RH WIND       PRES   REMARKS
PUEBLO         LGT RAIN  67  61  81 E12       30.22R
LA JUNTA       CLOUDY    71  58  63 NE13      30.18S
LAMAR          PTSUNNY   74  58  57 N14       30.12F
SPRINGFIELD      N/A     66  61  84 N16       30.15F
$$


USA.gov is the U.S. government's official web portal to all federal, state and local government web resources and services.